Location: Aalsum
(53.3404°N, 6.0062°E)
Time: 06:16:49
(UTC+00:00)

Cosmos 1697 Rocket - Pass Details

Date: 28 January 2023
Orbit: 834 x 842 km, 71.0° (Epoch: 24 March)

Event Time Altitude Azimuth Distance (km) Brightness Sun altitude
Rises 16:57:09 0° 193° (SSW) 3,387 6.4 -7.0°
Reaches altitude 10° 16:59:38 10° 189° (S) 2,455 5.6 -7.4°
Maximum altitude 17:05:06 55° 114° (ESE) 1,011 2.9 -8.2°
Drops below altitude 10° 17:10:37 10° 38° (NE) 2,468 4.6 -8.9°
Enters shadow 17:11:50 - 36° (NE) 2,923 5.0 -9.1°
